Estación meteorológica de Susqueda - Presa de (La Selva, Susqueda)

Consulta los datos en tiempo real de la estación meteorológica de Susqueda - Presa de





Hora UTC 02:25
Temperatura 22.9 ºC
Humedad 75.0 %
Presión 1018.3 hPa
Pluja 0.0 mm
Velocidad viento 0.0 km/h
Dirección viento W

Webcam

Datos diarios 2026-09-05



Hora UTC (invierno +1h; verano +2h)
Temperatura (ºC) Humedad (%) Presión (hPa) Velocidad viento (km/h) Precipitación (mm)
Hora UTC Aire Humedad Presión Vel. Dir. Vel. Max Dir. Intent. máx 5 min.
00:05 24.6 69.0 1018.1 0.0 W 0.0 0.0
00:10 24.4 70.0 1018.1 0.0 W 8.0 0.0
00:15 24.3 70.0 1018.1 0.0 W 9.7 0.0
00:20 24.2 70.0 1018.2 0.0 WSW 9.7 0.0
00:25 24.1 70.0 1018.2 0.0 W 0.0 0.0
00:30 24.1 71.0 1018.1 6.4 W 11.3 0.0
00:35 24.1 71.0 1018.2 0.0 W 11.3 0.0
00:40 24.1 71.0 1018.1 0.0 W 9.7 0.0
00:45 23.9 72.0 1018.1 0.0 W 6.4 0.0
00:50 23.9 72.0 1018.2 0.0 W 1.6 0.0
00:55 24.0 71.0 1018.1 0.0 WSW 1.6 0.0
01:00 24.0 70.0 1018.1 0.0 WSW 1.6 0.0
01:05 24.0 72.0 1018.2 0.0 WSW 1.6 0.0
01:10 23.8 71.0 1018.3 0.0 WSW 8.0 0.0
01:15 23.6 73.0 1018.2 0.0 W 8.0 0.0
01:20 23.4 73.0 1018.2 0.0 W 9.7 0.0
01:25 23.4 73.0 1018.2 0.0 WSW 11.3 0.0
01:30 23.5 74.0 1018.4 0.0 SW 11.3 0.0
01:35 23.5 74.0 1018.4 0.0 WSW 11.3 0.0
01:40 23.5 73.0 1018.3 0.0 W 11.3 0.0
01:45 23.5 74.0 1018.2 0.0 WSW 11.3 0.0
01:50 23.4 73.0 1018.3 0.0 WSW 11.3 0.0
01:55 23.4 73.0 1018.4 0.0 WSW 3.2 0.0
02:00 23.4 73.0 1018.3 0.0 W 9.7 0.0
02:05 23.3 73.0 1018.4 0.0 W 9.7 0.0
02:10 23.4 73.0 1018.3 0.0 WSW 9.7 0.0
02:15 23.3 73.0 1018.3 0.0 W 11.3 0.0
02:20 23.1 75.0 1018.3 0.0 WSW 11.3 0.0
02:25 22.9 75.0 1018.3 0.0 W 0.0 0.0
Máxima 24.6 75.0 1018.4 6.4 W 11.3 0.0
Mínima 20 69.0 1018.1
Total 0.0